Location: Escondida
(34.1015°N, 106.8964°W)
Time: 03:48:48
(UTC+00:00)

ARIANE 6 FM1 Upper Stage - Visible Passes

Search period start: 18 February 2026 00:00
Search period end: 28 February 2026 00:00
Orbit: 522 x 608 km, 62.0° (Epoch: 17 February)

Date Brightness Start Highest point End Pass type
(mag) Time Alt. Az. Time Alt. Az. Time Alt. Az.
18 Feb 4.1 01:44:06 10° N 01:46:53 18° NE 01:47:49 17° ENE visible
18 Feb 5.0 03:22:19 10° NW 03:23:53 20° WNW 03:23:53 20° WNW visible
19 Feb 3.6 01:43:35 10° N 01:46:57 26° NE 01:48:57 18° E visible
19 Feb 5.0 03:22:42 10° WNW 03:25:02 21° W 03:25:02 21° W visible
20 Feb 3.0 01:43:14 10° NNW 01:46:58 40° NE 01:50:24 12° ESE visible
20 Feb 5.4 03:23:32 10° W 03:25:36 14° WSW 03:26:31 13° SW visible
21 Feb 2.5 01:43:01 10° NNW 01:46:57 64° ENE 01:50:55 10° SE visible
22 Feb 2.7 01:42:55 10° NW 01:46:53 78° WSW 01:50:52 10° SSE visible
23 Feb 3.7 01:42:57 10° NW 01:46:46 47° WSW 01:50:36 10° SSE visible
24 Feb 4.7 01:43:09 10° NW 01:46:36 29° WSW 01:50:05 10° S visible
25 Feb 5.6 01:43:37 10° WNW 01:46:25 19° WSW 01:49:14 10° SSW visible
26 Feb 6.0 01:44:46 10° W 01:46:11 12° WSW 01:47:36 10° SW visible
